Time,TemperatureF,DewpointF,PressureIn,WindDirection,WindDirectionDegrees,WindSpeedMPH,WindSpeedGustMPH,Humidity,HourlyPrecipIn,Conditions,Clouds,dailyrainin,SoftwareType,DateUTC
2013-08-21 00:03:00,54.0,52.0,-100.00,NNE,20,2.0,4.0,94,-99.99,,,-99.99,,2013-08-21 08:03:00,
2013-08-21 00:43:00,54.0,52.0,-100.00,North,2,2.0,5.0,93,-99.99,,,-99.99,,2013-08-21 08:43:00,
2013-08-21 00:52:00,54.0,52.0,-100.00,North,2,2.0,5.0,93,-99.99,,,-99.99,,2013-08-21 08:52:00,
2013-08-21 01:11:00,53.0,51.0,-100.00,WNW,303,0.0,2.0,93,-99.99,,,-99.99,,2013-08-21 09:11:00,
2013-08-21 01:22:00,53.0,51.0,-100.00,WNW,303,0.0,2.0,93,-99.99,,,-99.99,,2013-08-21 09:22:00,
2013-08-21 01:43:00,53.0,51.0,-100.00,NNW,336,0.0,1.0,92,-99.99,,,-99.99,,2013-08-21 09:43:00,
2013-08-21 01:53:00,53.0,51.0,-100.00,NNW,336,0.0,1.0,92,-99.99,,,-99.99,,2013-08-21 09:53:00,
2013-08-21 02:03:00,53.0,51.0,-100.00,NNW,336,0.0,1.0,92,-99.99,,,-99.99,,2013-08-21 10:03:00,
2013-08-21 02:11:00,53.0,51.0,-100.00,North,355,0.0,4.0,92,-99.99,,,-99.99,,2013-08-21 10:11:00,
2013-08-21 02:43:00,53.0,51.0,-100.00,North,355,0.0,4.0,92,-99.99,,,-99.99,,2013-08-21 10:43:00,
2013-08-21 02:52:00,53.0,51.0,-100.00,North,355,0.0,4.0,92,-99.99,,,-99.99,,2013-08-21 10:52:00,
2013-08-21 03:03:00,53.0,51.0,-100.00,North,355,0.0,4.0,92,-99.99,,,-99.99,,2013-08-21 11:03:00,
2013-08-21 03:11:00,52.0,50.0,-100.00,SW,214,0.0,0.0,93,-99.99,,,-99.99,,2013-08-21 11:11:00,
2013-08-21 03:42:00,52.0,50.0,-100.00,SW,214,0.0,0.0,93,-99.99,,,-99.99,,2013-08-21 11:42:00,
2013-08-21 03:52:00,52.0,50.0,-100.00,SW,214,0.0,0.0,93,-99.99,,,-99.99,,2013-08-21 11:52:00,
2013-08-21 04:01:00,52.0,50.0,-100.00,SW,214,0.0,0.0,93,-99.99,,,-99.99,,2013-08-21 12:01:00,
2013-08-21 04:11:00,51.0,49.0,-100.00,North,1,3.0,4.0,92,-99.99,,,-99.99,,2013-08-21 12:11:00,
2013-08-21 04:42:00,51.0,49.0,-100.00,North,1,3.0,4.0,92,-99.99,,,-99.99,,2013-08-21 12:42:00,
2013-08-21 04:52:00,51.0,49.0,-100.00,North,1,3.0,4.0,92,-99.99,,,-99.99,,2013-08-21 12:52:00,
2013-08-21 07:11:00,50.0,45.0,-100.00,NNE,13,4.0,9.0,84,-99.99,,,-99.99,,2013-08-21 15:11:00,
2013-08-21 07:22:00,50.0,45.0,-100.00,NNE,13,4.0,9.0,84,-99.99,,,-99.99,,2013-08-21 15:22:00,
2013-08-21 07:43:00,50.0,46.0,-100.00,ESE,119,5.0,9.0,85,-99.99,,,-99.99,,2013-08-21 15:43:00,
2013-08-21 07:54:00,50.0,46.0,-100.00,ESE,119,5.0,9.0,85,-99.99,,,-99.99,,2013-08-21 15:54:00,
2013-08-21 08:11:00,50.0,45.0,-100.00,NNE,16,4.0,9.0,83,-99.99,,,-99.99,,2013-08-21 16:11:00,
2013-08-21 08:13:00,50.0,46.0,-100.00,NNE,18,3.0,6.0,85,-99.99,,,-99.99,,2013-08-21 16:13:00,
2013-08-21 08:24:00,50.0,46.0,-100.00,NNE,18,3.0,6.0,85,-99.99,,,-99.99,,2013-08-21 16:24:00,
2013-08-21 08:43:00,50.0,45.0,-100.00,NNE,16,4.0,9.0,83,-99.99,,,-99.99,,2013-08-21 16:43:00,
2013-08-21 08:53:00,50.0,45.0,-100.00,NNE,16,4.0,9.0,83,-99.99,,,-99.99,,2013-08-21 16:53:00,
2013-08-21 09:03:00,50.0,45.0,-100.00,NNE,16,4.0,9.0,83,-99.99,,,-99.99,,2013-08-21 17:03:00,
2013-08-21 10:12:00,51.0,46.0,-100.00,NNE,19,5.0,8.0,83,-99.99,,,-99.99,,2013-08-21 18:12:00,
2013-08-21 10:22:00,51.0,46.0,-100.00,NNE,19,5.0,8.0,83,-99.99,,,-99.99,,2013-08-21 18:22:00,
2013-08-21 10:41:00,51.0,46.0,-100.00,NNE,17,4.0,9.0,84,-99.99,,,-99.99,,2013-08-21 18:41:00,
2013-08-21 10:42:00,51.0,46.0,-100.00,NNE,17,4.0,8.0,84,-99.99,,,-99.99,,2013-08-21 18:42:00,
2013-08-21 10:52:00,51.0,46.0,-100.00,NNE,17,4.0,8.0,84,-99.99,,,-99.99,,2013-08-21 18:52:00,
2013-08-21 11:11:00,51.0,46.0,-100.00,NNE,17,4.0,9.0,84,-99.99,,,-99.99,,2013-08-21 19:11:00,
2013-08-21 11:22:00,51.0,46.0,-100.00,NNE,17,4.0,9.0,84,-99.99,,,-99.99,,2013-08-21 19:22:00,
2013-08-21 11:32:00,51.0,46.0,-100.00,NNE,17,4.0,9.0,84,-99.99,,,-99.99,,2013-08-21 19:32:00,
2013-08-21 13:11:00,53.0,48.0,-100.00,North,10,2.0,5.0,84,-99.99,,,-99.99,,2013-08-21 21:11:00,
2013-08-21 13:12:00,53.0,47.0,-100.00,NNE,15,3.0,6.0,81,-99.99,,,-99.99,,2013-08-21 21:12:00,
2013-08-21 13:21:00,53.0,47.0,-100.00,NNE,15,3.0,6.0,81,-99.99,,,-99.99,,2013-08-21 21:21:00,
2013-08-21 13:54:00,53.0,48.0,-100.00,North,10,2.0,5.0,84,-99.99,,,-99.99,,2013-08-21 21:54:00,
2013-08-21 14:04:00,53.0,48.0,-100.00,North,10,2.0,5.0,84,-99.99,,,-99.99,,2013-08-21 22:04:00,
2013-08-21 14:11:00,54.0,48.0,-100.00,NW,321,1.0,4.0,81,-99.99,,,-99.99,,2013-08-21 22:11:00,
2013-08-21 14:44:00,54.0,48.0,-100.00,NW,321,1.0,4.0,81,-99.99,,,-99.99,,2013-08-21 22:44:00,
2013-08-21 14:53:00,54.0,48.0,-100.00,NW,321,1.0,4.0,81,-99.99,,,-99.99,,2013-08-21 22:53:00,
2013-08-21 15:03:00,54.0,48.0,-100.00,NW,321,1.0,4.0,81,-99.99,,,-99.99,,2013-08-21 23:03:00,
2013-08-21 15:41:00,55.0,50.0,-100.00,North,6,3.0,5.0,82,-99.99,,,-99.99,,2013-08-21 23:41:00,
2013-08-21 15:43:00,55.0,49.0,-100.00,North,355,2.0,5.0,80,-99.99,,,-99.99,,2013-08-21 23:43:00,
2013-08-21 15:53:00,55.0,49.0,-100.00,North,355,2.0,5.0,80,-99.99,,,-99.99,,2013-08-21 23:53:00,
2013-08-21 16:12:00,55.0,50.0,-100.00,North,6,3.0,5.0,82,-99.99,,,-99.99,,2013-08-22 00:12:00,
2013-08-21 16:21:00,55.0,50.0,-100.00,North,6,3.0,5.0,82,-99.99,,,-99.99,,2013-08-22 00:21:00,
2013-08-21 16:32:00,55.0,50.0,-100.00,North,6,3.0,5.0,82,-99.99,,,-99.99,,2013-08-22 00:32:00,
2013-08-21 17:42:00,56.0,48.0,-100.00,NE,35,4.0,8.0,74,-99.99,,,-99.99,,2013-08-22 01:42:00,
2013-08-21 17:52:00,56.0,48.0,-100.00,NE,35,4.0,8.0,74,-99.99,,,-99.99,,2013-08-22 01:52:00,
2013-08-21 18:11:00,55.0,48.0,-100.00,NNE,32,4.0,12.0,76,-99.99,,,-99.99,,2013-08-22 02:11:00,
2013-08-21 18:12:00,56.0,48.0,-100.00,NNE,31,5.0,10.0,75,-99.99,,,-99.99,,2013-08-22 02:12:00,
2013-08-21 18:22:00,56.0,48.0,-100.00,NNE,31,5.0,10.0,75,-99.99,,,-99.99,,2013-08-22 02:22:00,
2013-08-21 18:52:00,55.0,48.0,-100.00,NNE,32,4.0,12.0,76,-99.99,,,-99.99,,2013-08-22 02:52:00,
2013-08-21 19:02:00,55.0,48.0,-100.00,NNE,32,4.0,12.0,76,-99.99,,,-99.99,,2013-08-22 03:02:00,
2013-08-21 19:45:00,54.0,48.0,-100.00,NNE,33,5.0,8.0,80,-99.99,,,-99.99,,2013-08-22 03:45:00,
2013-08-21 19:54:00,54.0,48.0,-100.00,NNE,33,5.0,8.0,80,-99.99,,,-99.99,,2013-08-22 03:54:00,
2013-08-21 20:11:00,53.0,47.0,-100.00,NNE,30,5.0,8.0,81,-99.99,,,-99.99,,2013-08-22 04:11:00,
2013-08-21 20:14:00,53.0,48.0,-100.00,NNE,27,4.0,5.0,82,-99.99,,,-99.99,,2013-08-22 04:14:00,
2013-08-21 20:23:00,53.0,48.0,-100.00,NNE,27,4.0,5.0,82,-99.99,,,-99.99,,2013-08-22 04:23:00,
2013-08-21 20:44:00,53.0,47.0,-100.00,NNE,30,5.0,8.0,81,-99.99,,,-99.99,,2013-08-22 04:44:00,
2013-08-21 20:54:00,53.0,47.0,-100.00,NNE,30,5.0,8.0,81,-99.99,,,-99.99,,2013-08-22 04:54:00,
2013-08-21 21:03:00,53.0,47.0,-100.00,NNE,30,5.0,8.0,81,-99.99,,,-99.99,,2013-08-22 05:03:00,
2013-08-21 21:43:00,52.0,47.0,-100.00,NNE,31,5.0,9.0,84,-99.99,,,-99.99,,2013-08-22 05:43:00,
2013-08-21 21:52:00,52.0,47.0,-100.00,NNE,31,5.0,9.0,84,-99.99,,,-99.99,,2013-08-22 05:52:00,
2013-08-21 22:12:00,51.0,47.0,-100.00,NE,36,6.0,10.0,85,-99.99,,,-99.99,,2013-08-22 06:12:00,
2013-08-21 22:22:00,51.0,47.0,-100.00,NE,36,6.0,10.0,85,-99.99,,,-99.99,,2013-08-22 06:22:00,
2013-08-21 22:42:00,51.0,47.0,-100.00,NE,35,5.0,10.0,85,-99.99,,,-99.99,,2013-08-22 06:42:00,
2013-08-21 22:52:00,51.0,47.0,-100.00,NE,35,5.0,10.0,85,-99.99,,,-99.99,,2013-08-22 06:52:00,
2013-08-21 23:11:00,51.0,47.0,-100.00,NNE,31,6.0,11.0,86,-99.99,,,-99.99,,2013-08-22 07:11:00,
2013-08-21 23:21:00,51.0,47.0,-100.00,NNE,31,6.0,11.0,86,-99.99,,,-99.99,,2013-08-22 07:21:00,
2013-08-21 23:42:00,51.0,47.0,-100.00,NNE,32,6.0,9.0,87,-99.99,,,-99.99,,2013-08-22 07:42:00,
2013-08-21 23:52:00,51.0,47.0,-100.00,NNE,32,6.0,9.0,87,-99.99,,,-99.99,,2013-08-22 07:52:00,